Szolnok, Hungary

4:23 AM CEST on April 29, 2017 (GMT +0200)
Szolnok

Weather History for LHSN - February, 2013

Change the Weather History Date:

Wednesday, February 27, 2013

  Actual Average (LHBP) Record (LHBP)
Temperature  
Mean Temperature 42 °F -  
Max Temperature 46 °F 42 °F 62 °F (2008)
Min Temperature 39 °F 26 °F 10 °F (2003)
Degree Days  
Heating Degree Days 22    
Moisture  
Dew Point 36 °F    
Average Humidity 79    
Maximum Humidity 87    
Minimum Humidity 66    
Precipitation  
Precipitation 0.00 in - - ()
Sea Level Pressure  
Sea Level Pressure 30.19 in    
Wind  
Wind Speed 6 mph ()    
Max Wind Speed 13 mph    
Max Gust Speed -    
Visibility 6.0 miles    
Events Rain    
Averages and records for this station are not official NWS values.
T = Trace of Precipitation, MM = Missing Value Source: Averaged Metar Reports

Daily Weather History Graph

Daily Weather History Graph

Search for Another Location

Airport or City:

Trip Planner

Search our weather history database for the weather conditions in past years. The results will help you decide how hot, cold, wet, or windy it might be!

Date:

Astronomy

Feb. 27, 2013 Rise Set
Actual Time 6:22 AM CET 5:21 PM CET
Civil Twilight 5:52 AM CET 5:52 PM CET
Nautical Twilight 5:16 AM CET 6:27 PM CET
Astronomical Twilight 4:41 AM CET 7:02 PM CET
Moon 7:34 PM CET (2/27) 6:38 AM CET (2/27)
Length of Visible Light 12h 00m
Length of Day
10h 58m
Full, 97% of the Moon is Illuminated
Feb 27
Full
Mar 4
Last Quarter
Mar 11
New
Mar 19
First Quarter
Mar 27
Full

Hourly Weather History & Observations

Time (CET) Temp. Windchill Dew Point Humidity Pressure Visibility Wind Dir Wind Speed Gust Speed Precip Events Conditions
12:15 AM 41.0 °F 36.5 °F 35.6 °F 81% 30.15 in 6.2 mi East 6.7 mph - N/A   Mostly Cloudy
12:45 AM 41.0 °F 36.5 °F 35.6 °F 81% 30.15 in 6.2 mi ENE 6.7 mph - N/A Rain Light Rain Showers
1:15 AM 41.0 °F 35.4 °F 35.6 °F 81% 30.15 in 6.2 mi NE 8.9 mph - N/A Rain Light Rain Showers
1:45 AM 41.0 °F 36.5 °F 35.6 °F 81% 30.15 in 6.2 mi NNE 6.7 mph - N/A Rain Light Rain Showers
2:15 AM 41.0 °F 38.1 °F 35.6 °F 81% 30.15 in 6.2 mi ENE 4.5 mph - N/A Rain Light Rain Showers
2:45 AM 39.2 °F 36.0 °F 35.6 °F 87% 30.15 in 6.2 mi ENE 4.5 mph - N/A   Mostly Cloudy
3:15 AM 39.2 °F 36.0 °F 35.6 °F 87% 30.15 in 6.2 mi NE 4.5 mph - N/A   Mostly Cloudy
3:45 AM 39.2 °F 36.0 °F 35.6 °F 87% 30.15 in 6.2 mi NE 4.5 mph - N/A   Mostly Cloudy
4:15 AM 39.2 °F 34.4 °F 35.6 °F 87% 30.15 in 6.2 mi NE 6.7 mph - N/A   Mostly Cloudy
4:45 AM 39.2 °F 36.0 °F 33.8 °F 81% 30.15 in - NE 4.5 mph - N/A   Clear
5:15 AM 39.2 °F 36.0 °F 33.8 °F 81% 30.15 in 6.2 mi NE 4.5 mph - N/A   Mostly Cloudy
5:45 AM - - - N/A% - 6.2 mi NE 8.9 mph - N/A   Overcast
6:15 AM 39.2 °F 33.1 °F 33.8 °F 81% 30.15 in - NNE 8.9 mph - N/A   Clear
6:45 AM 39.2 °F 33.1 °F 33.8 °F 81% 30.15 in - NNE 8.9 mph - N/A   Clear
7:15 AM 39.2 °F 33.1 °F 33.8 °F 81% 30.18 in - NE 8.9 mph - N/A   Clear
7:45 AM 39.2 °F 33.1 °F 33.8 °F 81% 30.18 in - NE 8.9 mph - N/A   Clear
8:15 AM 41.0 °F 33.6 °F 33.8 °F 76% 30.18 in 6.2 mi NE 13.4 mph - N/A   Mostly Cloudy
8:45 AM - - - N/A% - 6.2 mi NE 8.9 mph - N/A Rain Light Rain Showers
9:04 AM 41.0 °F 36.5 °F 35.6 °F 81% 30.18 in 6.2 mi NNE 6.7 mph - N/A Rain Light Rain Showers
9:06 AM 41.0 °F 36.5 °F 35.6 °F 81% 30.18 in 6.2 mi NNE 6.7 mph - N/A Rain Light Rain Showers
9:15 AM 41.0 °F 36.5 °F 35.6 °F 81% 30.18 in 6.2 mi NNE 6.7 mph - N/A Rain Light Rain Showers
9:32 AM 41.0 °F 35.4 °F 35.6 °F 81% 30.18 in - NNE 8.9 mph - N/A   Clear
9:45 AM 41.0 °F 35.4 °F 35.6 °F 81% 30.18 in 6.2 mi NNE 8.9 mph - N/A Rain Light Rain Showers
10:05 AM 41.0 °F 35.4 °F 35.6 °F 81% 30.21 in 6.2 mi NNE 8.9 mph - N/A   Mostly Cloudy
10:15 AM 42.8 °F 37.6 °F 35.6 °F 76% 30.21 in 6.2 mi NNE 8.9 mph - N/A   Mostly Cloudy
10:45 AM 44.6 °F 39.8 °F 37.4 °F 76% 30.21 in 6.2 mi NNE 8.9 mph - N/A   Mostly Cloudy
11:15 AM 44.6 °F 38.9 °F 35.6 °F 71% 30.21 in 6.2 mi NNE 11.2 mph - N/A   Mostly Cloudy
11:45 AM - - - N/A% - 6.2 mi NNE 11.2 mph - N/A Rain Light Rain Showers
12:15 PM 46.4 °F 41.2 °F 35.6 °F 66% 30.18 in 6.2 mi NE 11.2 mph - N/A   Mostly Cloudy
12:45 PM 44.6 °F 39.8 °F 37.4 °F 76% 30.18 in 6.2 mi NNE 8.9 mph - N/A   Mostly Cloudy
1:15 PM 44.6 °F 39.8 °F 35.6 °F 71% 30.18 in 6.2 mi North 8.9 mph - N/A   Mostly Cloudy
1:40 PM 44.6 °F 39.8 °F 35.6 °F 71% 30.18 in 6.2 mi NNE 8.9 mph - N/A Rain Light Rain Showers
1:45 PM 44.6 °F 39.8 °F 35.6 °F 71% 30.18 in 6.2 mi NNE 8.9 mph - N/A Rain Light Rain Showers
2:15 PM 44.6 °F 38.9 °F 37.4 °F 76% 30.18 in 6.2 mi NNE 11.2 mph - N/A Rain Light Rain Showers
2:45 PM - - - N/A% - 6.2 mi NNE 6.7 mph - N/A Rain Light Rain Showers
3:15 PM 44.6 °F - 39.2 °F 81% 30.21 in 6.2 mi NE 2.2 mph - N/A   Mostly Cloudy
3:45 PM 44.6 °F - 39.2 °F 81% 30.21 in - NE 2.2 mph - N/A   Clear
4:15 PM 44.6 °F - 39.2 °F 81% 30.21 in - North 2.2 mph - N/A   Clear
4:45 PM 44.6 °F - 39.2 °F 81% 30.21 in - North 2.2 mph - N/A   Clear
5:15 PM 44.6 °F - 39.2 °F 81% 30.21 in - NW 2.2 mph - N/A   Clear
5:45 PM - - - N/A% - 1.7 mi North 6.7 mph - N/A   Clear
6:15 PM 44.6 °F 42.3 °F 39.2 °F 81% 30.21 in - NNW 4.5 mph - N/A   Clear
6:45 PM 44.6 °F 42.3 °F 37.4 °F 76% 30.24 in - NNW 4.5 mph - N/A   Clear
7:45 PM 42.8 °F 40.2 °F 35.6 °F 76% 30.24 in - NNE 4.5 mph - N/A   Clear
8:15 PM 42.8 °F 37.6 °F 33.8 °F 70% 30.24 in - NE 8.9 mph - N/A   Clear
8:45 PM - - - N/A% - 3.1 mi NE 4.5 mph - N/A   Clear
9:15 PM 41.0 °F 38.1 °F 33.8 °F 76% 30.27 in - ENE 4.5 mph - N/A   Clear
9:45 PM 39.2 °F 34.4 °F 32.0 °F 75% 30.27 in - ENE 6.7 mph - N/A   Clear
10:15 PM 39.2 °F 34.4 °F 32.0 °F 75% 30.27 in - East 6.7 mph - N/A   Clear
10:45 PM 39.2 °F 34.4 °F 30.2 °F 70% 30.27 in - ENE 6.7 mph - N/A   Clear